This demonstration page uses our WeatherBlox Daily Observations layout. Learn more.

40.92945, -100.16068

Hourly Observations for April 29, 2018

Temp ( °F °C ) Dew Point ( °F °C ) Humidity (%) Winds ( mph kmh ) Pressure ( in mb ) Visibility ( mi km ) Precip ( " mm )
12:15 am 00:15 Clear 53 11.5 32 0 45 45 SE 12 19 30.03 1017 10 16.0934 0 0
12:35 am 00:35 Clear 51 10.7 33 0.3 49 49 SE 10 17 30.03 1017 10 16.0934 0 0
12:55 am 00:55 Clear 51 10.3 33 0.5 51 51 ESE 8 13 30.03 1017 10 16.0934 0 0
1:15 am 01:15 Clear 50 9.8 33 0.6 53 53 ESE 9 15 30.06 1018 10 16.0934 0 0
1:35 am 01:35 Clear 49 9.5 33 0.7 55 55 ESE 9 15 30.06 1018 10 16.0934 0 0
1:55 am 01:55 Clear 49 9.3 33 0.7 55 55 ESE 9 15 30.06 1018 10 16.0934 0 0
2:15 am 02:15 Clear 49 9.2 34 1 57 57 ESE 9 15 30.06 1018 10 16.0934 0 0
2:35 am 02:35 Partly Cloudy 48 9 34 1.1 58 58 ESE 8 13 30.06 1018 10 16.0934 0 0
2:55 am 02:55 Clear 48 8.9 34 1.3 59 59 ESE 8 13 30.03 1017 10 16.0934 0 0
3:15 am 03:15 Clear 49 9.4 35 1.5 58 58 SE 12 19 30.03 1017 10 16.0934 0 0
3:35 am 03:35 Clear 50 9.8 35 1.6 57 57 SE 12 19 30.03 1017 10 16.0934 0 0
3:55 am 03:55 Clear 50 10.2 35 1.7 56 56 SE 14 22 30 1016 10 16.0934 0 0
4:15 am 04:15 Clear 51 10.5 36 2 56 56 SSE 17 28 29.97 1015 10 16.0934 0 0
4:35 am 04:35 Clear 52 10.9 36 2 54 54 SSE 18 30 29.97 1015 10 16.0934 0 0
4:55 am 04:55 Clear 51 10.7 36 2.1 56 56 SE 18 30 29.97 1015 10 16.0934 0 0
5:15 am 05:15 Clear 51 10.7 36 2.1 56 56 SE 18 30 29.97 1015 10 16.0934 0 0
5:35 am 05:35 Clear 51 10.6 36 2.2 56 56 SE 16 26 29.97 1015 10 16.0934 0 0
5:55 am 05:55 Clear 51 10.7 36 2.3 56 56 SE 18 30 29.97 1015 10 16.0934 0 0
6:15 am 06:15 Clear 51 10.5 36 2.4 58 58 SE 18 30 29.97 1015 10 16.0934 0 0
6:35 am 06:35 Clear 50 10.1 37 2.5 60 60 SE 16 26 29.97 1015 10 16.0934 0 0
6:55 am 06:55 Sunny 51 10.3 37 2.6 59 59 SE 18 30 29.94 1014 10 16.0934 0 0
7:15 am 07:15 Sunny 51 10.5 37 2.8 59 59 SSE 22 35 29.94 1014 10 16.0934 0 0
7:35 am 07:35 Sunny 51 10.6 38 3.1 60 60 SSE 22 35 29.94 1014 10 16.0934 0 0
7:55 am 07:55 Sunny 51 10.7 38 3.3 61 61 SSE 21 33 29.94 1014 10 16.0934 0 0
8:15 am 08:15 Sunny 53 11.5 38 3.6 59 59 SSE 24 39 29.94 1014 10 16.0934 0 0
8:35 am 08:35 Sunny 54 12.4 39 4.1 57 57 SSE 23 37 29.94 1014 10 16.0934 0 0
8:55 am 08:55 Sunny 57 13.7 40 4.5 54 54 SSE 25 41 29.91 1013 10 16.0934 0 0
9:15 am 09:15 Sunny 59 14.8 40 4.5 50 50 SSE 26 43 29.91 1013 10 16.0934 0 0
9:35 am 09:35 Sunny 61 15.9 40 4.7 48 48 SSE 24 39 29.85 1011 10 16.0934 0 0
9:55 am 09:55 Sunny 63 17.1 41 5 45 45 SSE 28 44 29.85 1011 10 16.0934 0 0
10:15 am 10:15 Sunny 66 18.7 41 5 41 41 SSE 26 43 29.85 1011 10 16.0934 0 0
10:35 am 10:35 Sunny 68 20 41 5.2 38 38 SSE 30 48 29.83 1010 10 16.0934 0 0
10:55 am 10:55 Sunny 69 20.3 42 5.4 38 38 S 29 46 29.83 1010 10 16.0934 0 0
11:15 am 11:15 Sunny 69 20.7 42 5.4 37 37 S 31 50 29.8 1009 10 16.0934 0 0
11:35 am 11:35 Sunny 71 21.5 42 5.7 36 36 S 33 54 29.8 1009 10 16.0934 0 0
11:55 am 11:55 Sunny 72 22.3 43 6.1 35 35 S 30 48 29.77 1008 10 16.0934 0 0
12:15 pm 12:15 Sunny 73 22.9 43 6.3 34 34 SSE 26 43 29.74 1007 10 16.0934 0 0
12:35 pm 12:35 Sunny 75 24 44 6.5 33 33 S 31 50 29.74 1007 10 16.0934 0 0
12:55 pm 12:55 Sunny 76 24.6 44 6.8 32 32 S 28 44 29.71 1006 10 16.0934 0 0
1:15 pm 13:15 Sunny 78 25.4 45 7.2 31 31 S 33 54 29.65 1004 10 16.0934 0 0
1:35 pm 13:35 Sunny 78 25.8 45 7.3 31 31 SSE 36 57 29.65 1004 10 16.0934 0 0
1:55 pm 13:55 Sunny 80 26.5 46 7.5 30 30 S 30 48 29.65 1004 10 16.0934 0 0
2:15 pm 14:15 Sunny 80 26.7 46 7.7 30 30 S 32 52 29.65 1004 10 16.0934 0 0
2:35 pm 14:35 Sunny 81 27 46 7.9 30 30 S 36 57 29.62 1003 10 16.0934 0 0
2:55 pm 14:55 Sunny 82 28 47 8.1 29 29 S 38 61 29.62 1003 10 16.0934 0 0
3:15 pm 15:15 Sunny 82 27.8 47 8.3 29 29 SSE 35 56 29.62 1003 10 16.0934 0 0
3:35 pm 15:35 Partly Cloudy 82 28 47 8.2 29 29 S 29 46 29.56 1001 10 16.0934 0 0
3:55 pm 15:55 Partly Cloudy 83 28.6 47 8.1 28 28 S 33 54 29.56 1001 10 16.0934 0 0
4:15 pm 16:15 Partly Cloudy 81 27.2 46 7.9 30 30 S 36 57 29.59 1002 10 16.0934 0 0
4:35 pm 16:35 Sunny 81 27.2 47 8.3 30 30 S 32 52 29.59 1002 10 16.0934 0 0
4:55 pm 16:55 Sunny 81 27 47 8.5 31 31 S 38 61 29.56 1001 10 16.0934 0 0
5:15 pm 17:15 Sunny 82 27.6 48 8.7 30 30 S 36 57 29.53 1000 10 16.0934 0 0
5:35 pm 17:35 Sunny 81 27.2 47 8.1 30 30 SSE 32 52 29.56 1001 10 16.0934 0 0
5:55 pm 17:55 Sunny 82 27.6 46 7.5 28 28 S 31 50 29.53 1000 10 16.0934 0 0
6:15 pm 18:15 Sunny 83 28.2 46 7.5 27 27 S 32 52 29.53 1000 10 16.0934 0 0
6:35 pm 18:35 Sunny 82 28 46 7.6 28 28 S 29 46 29.53 1000 10 16.0934 0 0
6:55 pm 18:55 Sunny 82 27.6 45 7.4 28 28 S 30 48 29.53 1000 10 16.0934 0 0
7:15 pm 19:15 Sunny 81 27.4 45 7 27 27 S 26 43 29.56 1001 10 16.0934 0 0
7:35 pm 19:35 Sunny 81 27.2 44 6.9 28 28 S 26 43 29.56 1001 10 16.0934 0 0
7:55 pm 19:55 Sunny 80 26.6 43 6.3 27 27 S 31 50 29.56 1001 10 16.0934 0 0
8:15 pm 20:15 Sunny 78 25.7 43 6 28 28 S 35 56 29.56 1001 10 16.0934 0 0
8:35 pm 20:35 Clear 77 25 43 6.1 30 30 S 31 50 29.56 1001 10 16.0934 0 0
8:55 pm 20:55 Clear 75 24.1 43 6.3 32 32 SSE 25 41 29.56 1001 10 16.0934 0 0
9:15 pm 21:15 Clear 74 23.5 43 6.3 33 33 SSE 28 44 29.59 1002 10 16.0934 0 0
9:35 pm 21:35 Clear 74 23.1 43 6.2 34 34 SSE 25 41 29.59 1002 10 16.0934 0 0
9:55 pm 21:55 Clear 73 22.7 43 6.1 34 34 SSE 26 43 29.62 1003 10 16.0934 0 0
10:15 pm 22:15 Clear 73 22.7 43 6.2 34 34 SSE 25 41 29.62 1003 10 16.0934 0 0
10:35 pm 22:35 Clear 72 22.3 43 6 35 35 S 26 43 29.62 1003 10 16.0934 0 0
10:55 pm 22:55 Clear 71 21.6 44 6.4 37 37 SSE 26 43 29.62 1003 10 16.0934 0 0
11:15 pm 23:15 Clear 71 21.4 44 6.7 39 39 SSE 26 43 29.62 1003 10 16.0934 0 0
11:35 pm 23:35 Clear 70 21.2 44 6.5 39 39 S 28 44 29.62 1003 10 16.0934 0 0
11:55 pm 23:55 Clear 70 21 43 6.3 39 39 S 29 46 29.62 1003 10 16.0934 0 0

Powered by AerisWeather